Location: Newark
(44.6028°N, 124.0883°W)
Time: 08:11:55
(UTC+00:00)

Vanguard 1 - Pass Details

Date: 23 October 2019
Orbit: 652 x 3831 km, 34.2° (Epoch: 13 November)

Event Time Altitude Azimuth Distance (km) Brightness Sun altitude
Rises 03:51:08 0° 249° (WSW) 3,977 14.0 -27.4°
Reaches altitude 10° 03:53:27 10° 243° (WSW) 3,285 13.3 -27.8°
Maximum altitude 04:01:36 50° 171° (S) 2,299 11.6 -29.3°
Enters shadow 04:04:39 43° 135° (SE) 2,762 11.8 -29.8°
Drops below altitude 10° 04:16:24 10° 103° (ESE) 5,783 - -31.8°
Sets 04:22:02 0° 99° (E) 7,240 - -32.8°
